TimeHST,TemperatureF,Dew PointF,Humidity,Sea Level PressureIn,VisibilityMPH,Wind Direction,Wind SpeedMPH,Gust SpeedMPH,PrecipitationIn,Events,Conditions,WindDirDegrees,DateUTC
12:53 AM,75.9,62.1,62,30.05,10.0,NNE,6.9,-,N/A,,Mostly Cloudy,30,2014-03-14 10:53:00
1:53 AM,75.0,61.0,62,30.04,10.0,NE,5.8,-,N/A,,Mostly Cloudy,40,2014-03-14 11:53:00
2:53 AM,75.0,62.1,64,30.02,10.0,NE,3.5,-,N/A,,Partly Cloudy,50,2014-03-14 12:53:00
3:53 AM,73.9,63.0,68,30.02,10.0,ENE,3.5,-,N/A,,Mostly Cloudy,60,2014-03-14 13:53:00
4:53 AM,75.0,63.0,66,30.01,10.0,East,3.5,-,N/A,,Mostly Cloudy,100,2014-03-14 14:53:00
5:53 AM,73.0,61.0,66,30.02,10.0,East,4.6,-,N/A,,Clear,100,2014-03-14 15:53:00
6:53 AM,73.0,62.1,68,30.04,10.0,East,5.8,-,N/A,,Clear,100,2014-03-14 16:53:00
7:53 AM,77.0,61.0,58,30.05,10.0,Calm,Calm,-,N/A,,Clear,0,2014-03-14 17:53:00
8:53 AM,79.0,62.1,56,30.06,10.0,West,4.6,-,N/A,,Clear,270,2014-03-14 18:53:00
9:53 AM,81.0,64.9,58,30.06,10.0,West,8.1,-,N/A,,Clear,260,2014-03-14 19:53:00
10:53 AM,81.0,64.9,58,30.05,10.0,West,6.9,-,N/A,,Clear,260,2014-03-14 20:53:00
11:53 AM,81.0,64.9,58,30.04,10.0,West,8.1,-,N/A,,Clear,270,2014-03-14 21:53:00
12:53 PM,82.0,64.9,56,30.01,10.0,West,8.1,-,N/A,,Clear,270,2014-03-14 22:53:00
1:53 PM,82.0,66.0,58,29.99,10.0,WSW,9.2,-,N/A,,Clear,250,2014-03-14 23:53:00
2:53 PM,82.0,66.9,60,29.97,10.0,WSW,9.2,-,N/A,,Clear,240,2014-03-15 00:53:00
3:53 PM,81.0,66.9,62,29.97,10.0,SW,9.2,-,N/A,,Clear,230,2014-03-15 01:53:00
4:53 PM,81.0,68.0,65,29.98,10.0,WSW,6.9,-,N/A,,Partly Cloudy,250,2014-03-15 02:53:00
5:53 PM,79.0,68.0,69,29.99,10.0,SW,5.8,-,N/A,,Overcast,230,2014-03-15 03:53:00
6:53 PM,79.0,66.0,64,30.00,10.0,NE,10.4,-,N/A,,Overcast,40,2014-03-15 04:53:00
7:53 PM,79.0,64.0,60,30.01,10.0,Calm,Calm,-,N/A,,Overcast,0,2014-03-15 05:53:00
8:53 PM,79.0,64.0,60,30.02,10.0,North,3.5,-,N/A,,Overcast,360,2014-03-15 06:53:00
9:53 PM,78.1,66.9,68,30.03,10.0,WNW,5.8,-,N/A,,Overcast,290,2014-03-15 07:53:00
10:53 PM,77.0,66.0,69,30.03,10.0,WNW,3.5,-,N/A,,Scattered Clouds,300,2014-03-15 08:53:00
11:53 PM,77.0,66.0,69,30.03,10.0,Calm,Calm,-,N/A,,Overcast,0,2014-03-15 09:53:00